Preview of NWS' New Version of Forecast
This preview is not operational and should not be used for support decisions.
Latest weather observations around

Oxford, Waterbury-Oxford Airport (KOXC)

Using International System of Units (Switch to English Units)
Date/ Time (EDT) Wind (kph) Vis. (km) Weather Sky Cond. Temp (°C) Rel. Humidity Wind Chill (°C) Heat Index (°C) Pressure Precip. (cm)
Air Dwpt 6 hour Altimeter (hPa) Sea level (hPa) 1 hr 3 hr 6 hr
Max Min
Sep 23 15:51 S 18 16.09 Clear CLR 29 20     59%   31 1008.8        
Sep 23 14:51 SSW 13 16.09 Clear CLR 29 20     57%   31 1009.8        
Sep 23 13:51 S 24 16.09 Clear CLR 29 21     61%   31 1010.2        
Sep 23 12:51 S 15 16.09 Clear CLR 29 20     57%   31 1010.8 1011.3      
Sep 23 11:51 S 13 16.09 Clear CLR 27 21     67%   29 1011.9        
Sep 23 10:51 11 16.09 Clear CLR 24 20     76%   25 1012.9        
Sep 23 09:51 8 16.09 Mostly Clear FEW080 23 19     81%   23 1013.6        
Sep 23 08:51 SSW 8 16.09 Mostly Cloudy FEW007 BKN085 21 19     90%     1013.9        
Sep 23 08:42 SW 13 16.09 Mostly Cloudy SCT007 BKN075 21 19     88%     1013.9        
Sep 23 08:31 9 16.09 Cloudy BKN005 OVC075 21 19     88%     1013.9        
Sep 23 07:55 SW 11 11.27 Mostly Cloudy BKN004 BKN075 19 19     100%     1013.9        
Sep 23 07:51 SW 9 11.27 Mostly Cloudy SCT004 BKN075 19 19     97%     1013.9        
Sep 23 07:32 SW 11 8.05 Fog/Mist FEW004 BKN075 19 18     94%     1013.9        
Sep 23 06:51 SSW 8 8.05 Fog/Mist FEW080 18 18     100%     1013.9        
Sep 23 05:51 SSW 9 16.09 Clear CLR 19 18     93%     1014.2        
Sep 23 04:51 SSW 8 16.09 Clear CLR 19 18     93%     1014.2        
Sep 23 03:51 S 8 16.09 Clear CLR 19 18     93%     1014.6        
Sep 23 02:51 SSW 8 16.09 Clear CLR 19 18     90%     1014.9        
Sep 23 01:51 SW 5 16.09 Clear CLR 21 18     87%     1015.6        
Sep 23 00:51 SW 5 16.09 Clear CLR 20 18     90%     1016.3        
Sep 22 23:51 SW 8 16.09 Clear CLR 20 18     87%     1016.6        
Sep 22 22:51 SSW 8 16.09 Clear CLR 21 18     84%     1016.9        
Sep 22 21:51 8 16.09 Clear CLR 21 17     81%     1017.6        
Sep 22 20:51 S 8 16.09 Clear   21 17     76%     1018        
Sep 22 19:51 SSW 9 16.09 Clear CLR 22 17     73%   22 1018        
Sep 22 18:51 SSW 9 16.09 Clear CLR 23 17     66%   23 1018        
Sep 22 17:51 8 16.09 Clear CLR 26 17     60%   26 1018        
Sep 22 16:51 SSW 17 16.09 Clear CLR 27 17     54%   28 1018.3        
Sep 22 15:51 S 17 16.09 Clear CLR 28 17     51%   29 1018.6        
Sep 22 14:51 S 15 16.09 Clear CLR 28 17     51%   29 1019.3        
Sep 22 13:51 8 16.09 Clear CLR 28 16     47%   28 1020.3        
Sep 22 12:51 SSW 13 16.09 Clear CLR 27 15     47%   27 1020.7        
Sep 22 11:51 8 16.09 Clear CLR 26 16     52%   26 1021.3        
Sep 22 10:51 5 16.09 Clear CLR 24 16     60%   24 1021.7 1022.5      
Sep 22 09:51 8 16.09 Clear CLR 22 15     66%   22 1022.4 1023.1      
Sep 22 08:51 Calm 16.09 Clear CLR 18 15     81%     1022.4 1023.5      
Sep 22 07:51 Calm 16.09 Clear CLR 14 13     93%     1022.4        
Sep 22 06:51 Calm 16.09 Clear CLR 11 11     100%     1022 1023.1      
Sep 22 05:51 NNE 5 16.09 Clear CLR 12 12     97%     1022.4 1023      
Sep 22 04:51 N 5 16.09 Clear CLR 12 12     97%     1022.4 1023      
Sep 22 03:51 Calm 16.09 Clear CLR 12 12     97%     1022.4 1023      
Sep 22 02:51 Calm 16.09 Clear CLR 13 12     90%     1022 1022.9      
Sep 22 01:51 Calm 16.09 Clear CLR 13 12     93%     1022.7 1023.3      
Sep 22 00:51 Calm 16.09 Clear CLR 14 13     93%     1022.7 1023.5      
Sep 21 23:51 Calm 16.09 Clear CLR 15 13     90%     1022.7 1023.4      
Sep 21 22:51 Calm 16.09 Clear CLR 15 13     90%     1022.7        
Sep 21 21:51 Calm 16.09 Clear CLR 16 14     87%     1022.7 1023.4      
Sep 21 20:51 Calm 16.09 Clear CLR 17 14     81%     1022.7        
Sep 21 19:51 Calm 16.09 Clear CLR 19 14     75%     1022.4        
Sep 21 18:51 Calm 16.09 Clear CLR 23 15     61%   23 1022.4        
Sep 21 17:51 SSW 8 16.09 Clear CLR 26 14     48%   25 1022        
Sep 21 16:51 SSW 9 16.09 Clear CLR 27 13     42%   27 1022        
Sep 21 15:51 8 16.09 Clear CLR 27 13     41%   27 1022        
Sep 21 14:51 5 16.09 Clear CLR 28 13     40%   27 1022.7        
Sep 21 13:51 SW 8 16.09 Clear CLR 27 13     42%   27 1022.7 1023.4      
Sep 21 12:51 Calm 16.09 Clear CLR 26 12     43%   25 1023.4        
Sep 21 11:51 NNE 9 16.09 Clear CLR 25 13     48%   25 1024.1 1024.8      
Sep 21 10:51 8 16.09 Clear CLR 24 13     50%   24 1024.4 1025.2      
Sep 21 09:51 N 8 16.09 Clear CLR 22 13     57%   21 1024.4 1025.3      
Sep 21 08:51 Calm 16.09 Clear CLR 18 13     73%     1024.1 1025.1      
Notice The following observation data may not be complete
Sep 21 07:51 N 9 16.09 Clear CLR   12      %     1023.7 1024.6      
Sep 21 06:51 NNW 9 16.09 Clear CLR 12 10     86%     1023 1024.3      
Sep 21 05:51 Calm 16.09 Clear CLR 11 10     93%     1023 1024      
Sep 21 04:51 WNW 5 16.09 Clear CLR 12 10     89%     1023 1024      
Sep 21 03:51 NW 5 16.09 Clear CLR 12 10     89%     1022.7 1023.7      
Sep 21 02:51 N 5 16.09 Clear CLR 12 11     90%     1022.7        
Sep 21 01:51 Calm 16.09 Clear CLR 13 11     84%     1022.4 1023.2      
Sep 21 00:51 NW 8 16.09 Clear CLR 12 11     93%     1022.4 1023.4      
Sep 20 23:51 N 5 16.09 Clear CLR 13 11     86%     1022.4        
Sep 20 22:51 NNW 8 16.09 Clear CLR 13 11     86%     1022.7        
Sep 20 21:51 Calm 16.09 Clear CLR 13 11     84%     1022.7        
Sep 20 20:51 Calm 16.09 Clear CLR 15 11     78%     1022.7        
Sep 20 19:51 WNW 5 16.09 Clear   19 11     59%     1022.4        
Sep 20 18:51 W 5 16.09 Clear CLR 21 10     51%     1021.7        
Sep 20 17:51 5 16.09 Clear   22 10     46%   22 1021.7        
Sep 20 16:51 9 16.09 Clear CLR 23 10     43%   23 1021.3        
Sep 20 15:51 NW 13 16.09 Clear CLR 23 10     43%   23 1021.7        
Sep 20 14:51 NW 13 16.09 Clear CLR 23 9     41%   23 1021.7        
Sep 20 13:51 11 16.09 Clear CLR 23 8     39%   22 1022.7        
Sep 20 12:51 11 16.09 Clear CLR 22 9     45%   21 1023.4        
Sep 20 11:51 NNW 15 16.09 Clear CLR 21 8     45%     1024.1 1025      
May 15 12:51 S 17 12.87 Clear CLR 24 19     71%   25 1010.2 1010.9      
May 14 11:51 WNW 8 16.09 Cloudy OVC008 13 11     87%     1016.6 1017.9      
May 14 08:49 Calm 1.61 Fog/Mist OVC001 10 10     100%     1016.9        
May 14 05:07 S 5 1.61 Fog/Mist OVC001 9 9     100% 9   1016.3        
May 13 13:51 SE 9 16.09 Light Rain OVC007 11 9     89%     1021.7 1023.1 0   0
May 12 11:14 ENE 13 9.66 Light Rain and Fog/Mist OVC028 8 6     87% 6   1021.3   0    
May 12 01:51 Calm 16.09 Cloudy OVC100 12 0     43%     1020.7 1021.7      
Jun 12 03:15 Calm 16.09 Clear CLR 22 14     60%   22 1015.6        
Jun 12 01:15 SW 5 16.09 Clear CLR 22 15     65%   22 1016.6        
Jun 12 00:15 SW 5 16.09 Clear   23 15     61%   23 1016.3        
Notice The following observation data may not be complete
Jun 11 23:35   16.09 Clear CLR          %              
Jun 11 21:15 SSW 5 16.09 Clear CLR 25 16     57%   25 1016.3        
Jun 11 03:35 SSW 5 16.09 Clear   18 13     73%     1017.3        
Jun 11 01:35 SW 5 16.09 Clear CLR 19 14     73%     1017.3        
Notice The following observation data may not be complete
Jun 11 01:15   16.09 Clear CLR          %              
Jun 10 22:55 SW 8 16.09 Clear CLR 21 13     60%     1016.9        
Notice The following observation data may not be complete
Jun 10 10:50   16.09 Partly Cloudy SCT150          %              
Jun 10 05:55 Calm 16.09 Clear CLR 12 8     77%     1013.9        
Jun 10 00:35 Calm 16.09 Clear CLR 15 9     67%     1012.2        
Jun 09 16:50   16.09 Partly Cloudy SCT055 24 9     38%   23 1007.1        
Jun 09 08:50 Calm 16.09 Mostly Cloudy BKN150 15 5     51%     1007.5        
Jun 08 23:35 NW 5 16.09 Clear CLR 11        %     1010.2        
Jun 08 17:50 S 11 16.09 Mostly Cloudy BKN150 16 8     59%     1013.6        
Jun 08 14:50 S 18 16.09 Cloudy OVC200 18        %     1015.6        
Jun 08 12:50 S 22 16.09 Mostly Cloudy BKN250 21 10     49%     1016.6        
Jun 08 02:55 Calm 16.09 Clear CLR 9 7     87%     1016.6        
Notice The following observation data may not be complete
Jun 08 01:35   16.09 Clear CLR          %              
Jun 07 10:50 ENE 15 16.09 Mostly Cloudy SCT030 BKN055 16 6     51%     1015.9        
Jun 06 05:15 NE 17 16.09 Clear   11 8     82%     1006.4        
Jun 06 04:55 NE 18 16.09 Clear   11 8     82%     1006.4   0 0  
Jun 06 03:35 NE 18 16.09 Clear   11 8     82%     1006.8        
Jun 06 00:15   14.48 Clear   12 9     82%     1008.5        
Jun 05 23:15 NNE 15 4.83 Clear   12 9     82%     1008.8